Time,TemperatureF,DewpointF,PressureIn,WindDirection,WindDirectionDegrees,WindSpeedMPH,WindSpeedGustMPH,Humidity,HourlyPrecipIn,Conditions,Clouds,dailyrainin,SoftwareType,DateUTC
2013-11-08 00:23:00,34.0,26.0,29.97,WNW,287,9.0,15.0,72,0.00,,,0.36,,2013-11-08 05:23:00,
2013-11-08 00:43:00,34.0,26.0,29.97,West,276,4.0,11.0,73,0.00,,,0.36,,2013-11-08 05:43:00,
2013-11-08 00:54:00,33.0,25.0,29.97,WSW,255,4.0,9.0,73,0.00,,,0.36,,2013-11-08 05:54:00,
2013-11-08 01:23:00,33.0,26.0,29.98,SW,214,3.0,9.0,76,0.00,,,0.36,,2013-11-08 06:23:00,
2013-11-08 01:42:00,33.0,26.0,29.98,SW,224,3.0,7.0,76,0.00,,,0.36,,2013-11-08 06:42:00,
2013-11-08 01:53:00,33.0,26.0,29.98,SE,143,2.0,8.0,76,0.00,,,0.36,,2013-11-08 06:53:00,
2013-11-08 02:12:00,32.0,25.0,29.97,SW,233,2.0,9.0,76,0.00,,,0.36,,2013-11-08 07:12:00,
2013-11-08 02:22:00,32.0,25.0,29.97,WSW,246,2.0,6.0,76,0.00,,,0.36,,2013-11-08 07:22:00,
2013-11-08 02:42:00,32.0,26.0,29.97,SE,146,1.0,6.0,77,0.00,,,0.36,,2013-11-08 07:42:00,
2013-11-08 02:52:00,32.0,26.0,29.98,SSW,193,2.0,6.0,78,0.00,,,0.36,,2013-11-08 07:52:00,
2013-11-08 03:22:00,33.0,27.0,29.98,SW,233,3.0,10.0,78,0.00,,,0.36,,2013-11-08 08:22:00,
2013-11-08 03:42:00,33.0,27.0,29.98,SSW,211,3.0,8.0,78,0.00,,,0.36,,2013-11-08 08:42:00,
2013-11-08 03:52:00,33.0,27.0,29.98,West,266,1.0,9.0,79,0.00,,,0.36,,2013-11-08 08:52:00,
2013-11-08 04:22:00,33.0,28.0,29.98,West,278,1.0,6.0,80,0.00,,,0.33,,2013-11-08 09:22:00,
2013-11-08 04:43:00,33.0,28.0,29.98,SSW,212,3.0,6.0,82,0.00,,,0.33,,2013-11-08 09:43:00,
2013-11-08 04:54:00,33.0,29.0,29.98,SW,226,0.0,2.0,85,0.00,,,0.33,,2013-11-08 09:54:00,
2013-11-08 05:13:00,32.0,29.0,29.99,WSW,242,2.0,4.0,87,0.00,,,0.33,,2013-11-08 10:13:00,
2013-11-08 05:23:00,32.0,29.0,29.99,WSW,242,0.0,4.0,89,0.00,,,0.33,,2013-11-08 10:23:00,
2013-11-08 05:43:00,31.0,29.0,29.99,SSW,197,0.0,2.0,91,0.00,,,0.25,,2013-11-08 10:43:00,
2013-11-08 05:53:00,31.0,29.0,29.99,SE,145,0.0,0.0,91,0.00,,,0.25,,2013-11-08 10:53:00,
2013-11-08 06:22:00,31.0,29.0,30.00,WSW,245,2.0,4.0,92,0.00,,,0.25,,2013-11-08 11:22:00,
2013-11-08 06:42:00,31.0,29.0,30.00,South,172,0.0,4.0,91,0.00,,,0.11,,2013-11-08 11:42:00,
2013-11-08 06:52:00,32.0,29.0,30.01,West,281,0.0,6.0,90,0.00,,,0.11,,2013-11-08 11:52:00,
2013-11-08 07:11:00,32.0,29.0,30.01,West,274,1.0,6.0,90,0.00,,,0.11,,2013-11-08 12:11:00,
2013-11-08 07:21:00,31.0,28.0,30.01,SSW,203,3.0,5.0,90,0.00,,,0.04,,2013-11-08 12:21:00,
2013-11-08 07:42:00,32.0,29.0,30.02,SW,214,3.0,8.0,89,0.00,,,0.04,,2013-11-08 12:42:00,
2013-11-08 07:52:00,32.0,29.0,30.02,SW,224,4.0,9.0,88,0.00,,,0.04,,2013-11-08 12:52:00,
2013-11-08 08:11:00,33.0,30.0,30.03,South,191,3.0,13.0,87,0.00,,,0.04,,2013-11-08 13:11:00,
2013-11-08 08:22:00,33.0,29.0,30.04,West,281,7.0,12.0,85,0.00,,,0.02,,2013-11-08 13:22:00,
2013-11-08 08:52:00,34.0,30.0,30.05,WNW,283,6.0,16.0,85,0.00,,,0.02,,2013-11-08 13:52:00,
2013-11-08 09:11:00,34.0,30.0,30.06,West,273,7.0,12.0,85,0.00,,,0.02,,2013-11-08 14:11:00,
2013-11-08 09:22:00,35.0,31.0,30.06,South,185,4.0,14.0,85,0.00,,,0.02,,2013-11-08 14:22:00,
2013-11-08 09:42:00,35.0,30.0,30.06,SW,228,5.0,11.0,83,0.00,,,0.02,,2013-11-08 14:42:00,
2013-11-08 09:52:00,36.0,31.0,30.06,West,276,2.0,11.0,81,0.00,,,0.02,,2013-11-08 14:52:00,
2013-11-08 10:11:00,36.0,30.0,30.07,West,276,7.0,14.0,79,0.00,,,0.02,,2013-11-08 15:11:00,
2013-11-08 10:22:00,36.0,30.0,30.07,West,266,8.0,15.0,78,0.00,,,0.02,,2013-11-08 15:22:00,
2013-11-08 10:44:00,36.0,30.0,30.07,West,273,6.0,12.0,79,0.00,,,0.02,,2013-11-08 15:44:00,
2013-11-08 10:53:00,37.0,31.0,30.07,WNW,282,7.0,14.0,78,0.00,,,0.02,,2013-11-08 15:53:00,
2013-11-08 11:13:00,37.0,30.0,30.08,West,281,8.0,16.0,75,0.01,,,0.03,,2013-11-08 16:13:00,
2013-11-08 11:23:00,37.0,29.0,30.09,WSW,257,7.0,14.0,73,0.01,,,0.03,,2013-11-08 16:23:00,
2013-11-08 11:42:00,37.0,29.0,30.09,West,260,8.0,20.0,74,0.01,,,0.03,,2013-11-08 16:42:00,
2013-11-08 11:53:00,38.0,30.0,30.09,West,263,8.0,17.0,74,0.01,,,0.03,,2013-11-08 16:53:00,
2013-11-08 12:22:00,39.0,30.0,30.08,WNW,287,11.0,17.0,69,0.00,,,0.03,,2013-11-08 17:22:00,
2013-11-08 12:43:00,39.0,30.0,30.08,WSW,252,11.0,20.0,69,0.00,,,0.03,,2013-11-08 17:43:00,
2013-11-08 12:53:00,39.0,30.0,30.08,WNW,287,8.0,17.0,69,0.00,,,0.03,,2013-11-08 17:53:00,
2013-11-08 13:22:00,39.0,29.0,30.08,West,266,11.0,16.0,67,0.00,,,0.03,,2013-11-08 18:22:00,
2013-11-08 13:43:00,41.0,28.0,30.08,WNW,284,11.0,19.0,60,0.00,,,0.03,,2013-11-08 18:43:00,
2013-11-08 13:53:00,41.0,27.0,30.08,WNW,294,12.0,21.0,58,0.00,,,0.03,,2013-11-08 18:53:00,
2013-11-08 14:12:00,40.0,27.0,30.09,WSW,257,13.0,21.0,60,0.00,,,0.03,,2013-11-08 19:12:00,
2013-11-08 14:22:00,38.0,29.0,30.09,NW,321,9.0,16.0,69,0.00,,,0.03,,2013-11-08 19:22:00,
2013-11-08 14:42:00,39.0,29.0,30.09,NW,308,7.0,13.0,67,0.00,,,0.03,,2013-11-08 19:42:00,
2013-11-08 14:53:00,39.0,27.0,30.09,WNW,287,8.0,19.0,61,0.00,,,0.03,,2013-11-08 19:53:00,
2013-11-08 15:12:00,40.0,28.0,30.10,West,281,7.0,13.0,62,0.00,,,0.03,,2013-11-08 20:12:00,
2013-11-08 15:22:00,39.0,27.0,30.10,NW,312,6.0,16.0,61,0.00,,,0.03,,2013-11-08 20:22:00,
2013-11-08 15:42:00,39.0,27.0,30.11,NW,316,7.0,13.0,62,0.00,,,0.03,,2013-11-08 20:42:00,
2013-11-08 15:53:00,39.0,28.0,30.11,WNW,302,6.0,21.0,64,0.00,,,0.03,,2013-11-08 20:53:00,
2013-11-08 16:12:00,39.0,29.0,30.12,West,259,6.0,15.0,67,0.00,,,0.03,,2013-11-08 21:12:00,
2013-11-08 16:22:00,38.0,30.0,30.12,SW,235,4.0,15.0,72,0.00,,,0.03,,2013-11-08 21:22:00,
2013-11-08 16:44:00,38.0,30.0,30.13,West,281,5.0,10.0,73,0.00,,,0.03,,2013-11-08 21:44:00,
2013-11-08 16:54:00,38.0,30.0,30.13,WSW,250,6.0,16.0,72,0.00,,,0.03,,2013-11-08 21:54:00,
2013-11-08 17:13:00,38.0,29.0,30.14,West,280,8.0,13.0,70,0.00,,,0.03,,2013-11-08 22:13:00,
2013-11-08 17:24:00,38.0,29.0,30.14,WNW,297,7.0,14.0,71,0.00,,,0.02,,2013-11-08 22:24:00,
2013-11-08 17:43:00,37.0,29.0,30.15,WNW,298,6.0,14.0,74,0.00,,,0.02,,2013-11-08 22:43:00,
2013-11-08 17:53:00,36.0,29.0,30.16,West,262,3.0,11.0,77,0.00,,,0.02,,2013-11-08 22:53:00,
2013-11-08 18:12:00,35.0,29.0,30.16,WSW,243,3.0,9.0,79,0.00,,,0.02,,2013-11-08 23:12:00,
2013-11-08 18:22:00,35.0,29.0,30.17,WSW,248,3.0,10.0,79,0.00,,,0.02,,2013-11-08 23:22:00,
2013-11-08 18:43:00,35.0,29.0,30.17,WNW,283,7.0,13.0,77,0.00,,,0.02,,2013-11-08 23:43:00,
2013-11-08 18:53:00,35.0,29.0,30.18,West,262,9.0,16.0,77,0.00,,,0.02,,2013-11-08 23:53:00,
2013-11-08 19:12:00,35.0,29.0,30.18,West,280,4.0,12.0,78,0.00,,,0.02,,2013-11-09 00:12:00,
2013-11-08 19:22:00,35.0,29.0,30.18,SW,235,4.0,10.0,79,0.00,,,0.02,,2013-11-09 00:22:00,
2013-11-08 19:52:00,35.0,29.0,30.19,WNW,289,1.0,9.0,79,0.00,,,0.02,,2013-11-09 00:52:00,
2013-11-08 20:11:00,35.0,29.0,30.19,WSW,252,1.0,7.0,78,0.00,,,0.02,,2013-11-09 01:11:00,
2013-11-08 20:22:00,35.0,28.0,30.19,WSW,253,2.0,6.0,76,0.00,,,0.02,,2013-11-09 01:22:00,
2013-11-08 20:42:00,35.0,28.0,30.19,WSW,238,1.0,5.0,76,0.00,,,0.02,,2013-11-09 01:42:00,
2013-11-08 20:52:00,35.0,28.0,30.19,West,280,4.0,9.0,75,0.00,,,0.02,,2013-11-09 01:52:00,
2013-11-08 21:12:00,36.0,29.0,30.19,SW,217,3.0,8.0,74,0.00,,,0.02,,2013-11-09 02:12:00,
2013-11-08 21:22:00,35.0,28.0,30.19,WSW,253,1.0,4.0,74,0.00,,,0.01,,2013-11-09 02:22:00,
2013-11-08 21:42:00,35.0,28.0,30.19,West,260,2.0,7.0,74,0.00,,,0.01,,2013-11-09 02:42:00,
2013-11-08 21:52:00,36.0,29.0,30.19,WSW,239,2.0,6.0,74,0.00,,,0.01,,2013-11-09 02:52:00,
2013-11-08 22:22:00,36.0,28.0,30.20,WSW,257,2.0,7.0,73,0.00,,,0.01,,2013-11-09 03:22:00,
2013-11-08 22:54:00,35.0,28.0,30.20,WSW,244,2.0,6.0,74,0.00,,,0.01,,2013-11-09 03:54:00,
2013-11-08 23:23:00,35.0,28.0,30.21,SSW,207,3.0,5.0,74,0.00,,,0.01,,2013-11-09 04:23:00,
2013-11-08 23:42:00,35.0,28.0,30.20,SW,232,3.0,5.0,75,0.00,,,0.01,,2013-11-09 04:42:00,
2013-11-08 23:53:00,35.0,28.0,30.21,WNW,288,0.0,4.0,76,0.00,,,0.01,,2013-11-09 04:53:00,